Zurück zum Katalog

SL-8 DEB

AktivPO
NORAD 6277·DEBRIS·🇷🇺 Russia

Gestartet Aug 16, 1972 von Plesetsk Cosmodrome

Loading…

Nächste Überflüge (nächste 24 Stunden)

TLE

AktuellSource: Space-Track

Epoche: Sep 14, 2026, 04:00 UTC

1 06277U 72062C   26257.16728727  .00000041  00000-0  23415-4 0  9995
2 06277  82.8556 310.0745 0004645 284.5635 101.2007 13.83475575717790

Verfolge SL-8 DEB in Echtzeit mit AllMySat

Download on the App Store